Regional Weather Roundup
Issued by NWS

Home | Current Version | Previous Version | Text Only | Print | Product List | Glossary On
Versions: 1 2 3 4 5 6 7 8 9 10 11 12 13 14 15 16 17 18 19 20 21 22 23 24 25 26 27
000
ASUS43 KMPX 021110
RWRMN
WEATHER ROUNDUP FOR MINNESOTA
NATIONAL WEATHER SERVICE TWIN CITIES/CHANHASSEN MN
500 AM CST THU FEB 02 2023


NOTE: "FAIR" INDICATES FEW OR NO CLOUDS BELOW 12,000 FEET WITH NO
SIGNIFICANT WEATHER AND/OR OBSTRUCTIONS TO VISIBILITY. N/A MEANS
CURRENT SKY AND/OR WEATHER CONDITIONS ARE NOT AVAILABLE.

MNZ060>063-068>070-021200-
   Twin Cities Metro

CITY           SKY/WX    TMP DP  RH WIND       PRES   REMARKS
TWIN CITIES    PTCLDY     9   2  73 W5        30.02R WCI   1
ST PAUL        CLEAR      9   3  77 CALM      30.03R
CRYSTAL        PTCLDY     9   4  80 CALM      30.00R
BLAINE         PTCLDY    12   9  85 CALM      30.00R
LAKEVILLE      CLEAR      9   3  78 W5        30.01R WCI   0
EDEN PRAIRIE   CLEAR      8   2  76 W6        30.01R WCI  -2
SOUTH ST PAUL  CLEAR      7   3  85 CALM      30.02R
LAKE ELMO      FAIR       7   3  85 CALM      30.01S
$$
MNZ001>005-007-008-013>017-022>024-027-028-021200-
   Northwest Minnesota

CITY           SKY/WX    TMP DP  RH WIND       PRES   REMARKS
BEMIDJI        CLEAR     -1 -10  64 NW18G28   30.11R HAZE    WCI -22
HALLOCK        CLEAR    -11 -17  77 NW17G25   30.31R WCI -35
ROSEAU           N/A    -11 -18  70 NW15      30.23R WCI -34
WARROAD        CLEAR    -13 -18  77 NW8       30.21R WCI -30
THIEF RVR FALL LGT SNOW -10 -16  74 N17G28    30.25R WCI -34
CROOKSTON        N/A     -9 -15  77 N24       30.29R HAZE    WCI -36
FOSSTON        CLEAR     -6 -11  77 N15       30.20R WCI -27
DETROIT LAKES  LGT SNOW   3   0  85 NW24G33   30.13R HAZE    WCI -20
MOORHEAD       CLEAR     -2  -9  71 N25       30.26R WCI -27
PARK RAPIDS    MIX PCPN   5  -3  69 N23G31    30.07R WCI -17
MAHNOMEN       FAIR       0  -6  77 N18       30.17R WCI -21
$$
MNZ006-009>011-018-025>026-021200-
   North Central Minnesota

CITY           SKY/WX    TMP DP  RH WIND       PRES   REMARKS
BAUDETTE       CLEAR    -10 -19  64 NW17G26   30.15R WCI -34
FLAG ISLAND    CLEAR    -15 -24  64 NW22G29   30.18R WCI -42
INTL FALLS     CLEAR     -3 -14  59 NW15G29   30.05R WCI -23
WASKISH        CLEAR     -4 -13  65 NW15G21   30.14R WCI -25
BIG FORK       CLEAR      1  -8  66 NW14G21   30.09R WCI -17
LONGVILLE      MOCLDY     7   0  72 NW8G21    30.05R WCI  -6
GRAND RAPIDS   LGT SNOW   5  -1  76 NW24G33   30.02R WCI -17
CRANE LAKE     PTCLDY     0 -11  60 N12G22    30.03R WCI -18
ORR            PTCLDY     0  -8  71 NW16G26   29.97R HAZE    WCI -21
COOK           LGT SNOW   3  -4  72 NW9G16    29.98R WCI -11
WALKER         PTSUNNY    4  -4  69 NW13G25   30.08R HAZE    WCI -13
$$
MNZ012-019>021-037-021200-
   Northeast Minnesota

CITY           SKY/WX    TMP DP  RH WIND       PRES   REMARKS
DULUTH         LGT SNOW   9   3  77 NW22G36   29.89R VSB 1   WCI -11
ELY            CLOUDY     3  -6  66 NW18G29   29.93R HAZE    WCI -17
HIBBING        LGT SNOW   4  -4  69 NW24G31   29.96R VSB 3/4 WCI -19
EVELETH        CLOUDY     5   0  78 NW12G20   29.96R HAZE    WCI -11
DULUTH HARBOR  FLURRIES  12   5  73 NW18      29.99R WCI  -5
TWO HARBORS    CLOUDY     9   3  78 NW10G24   29.89R HAZE    WCI  -6
GRAND MARAIS     N/A     11  -1  58 VRB6      29.88R WCI   1
G MARAIS ARPRT PTCLDY     1  -4  78 NW15G25   29.72R HAZE    WCI -18
$$
MNZ029>031-032-039>041-046>048-054>057-064-021200-
   West Central Minnesota

CITY           SKY/WX    TMP DP  RH WIND       PRES   REMARKS
FERGUS FALLS   PTCLDY     7   1  78 N17G31    30.13R WCI -12
WHEATON        MOCLDY     9   3  78 NW23G30   30.19R WCI -12
MORRIS           N/A      7   1  78 NW24      30.11R WCI -15
ALEXANDRIA     CLOUDY    11   5  77 N12G23    30.05R WCI  -3
ELBOW LAKE     CLOUDY     7   4  86 N17G29    30.13R WCI -11
WADENA         PTCLDY     7   0  72 N12       30.08R WCI  -9
GLENWOOD       PTCLDY    10   7  85 NW16      30.05R WCI  -7
APPLETON         N/A     10   5  79 N24G32    30.12R WCI -10
BENSON         PTCLDY     9   5  85 N18       30.09R WCI -10
ORTONVILLE     MOCLDY     9   5  85 N22G29    30.16R WCI -11
MADISON        PTCLDY    16  10  79 N33       30.15R WCI  -5
WILLMAR        FAIR      10   7  85 NW14      30.07R WCI  -5
$$
MNZ033>034-036-042>043-049>051-058-059-021200-
   Central Minnesota

CITY           SKY/WX    TMP DP  RH WIND       PRES   REMARKS
ST CLOUD       MOCLDY     5   2  87 NW7       30.01R WCI  -7
SAUK CENTRE      N/A     11   8  87 NW10      30.03R WCI  -3
PAYNESVILLE    PTCLDY    12   7  79 NW7       30.03R WCI   2
AITKIN         FLURRIES  10   3  72 NW14G21   30.02R WCI  -5
PINE RIVER     PTCLDY     9   1  72 N16G29    30.08R WCI  -9
BRAINERD       LGT SNOW  10   2  69 N18G36    30.04R WCI  -8
STAPLES        CLOUDY    10   3  72 NW13G25   30.06R WCI  -5
LONG PRAIRIE   CLOUDY    12   9  85 N16G23    30.03R WCI  -4
LITTLE FALLS     N/A     16   9  73 NW8       30.02R WCI   5
CAMP RIPLEY    FLURRIES  14   6  71 NW23G29   30.01R WCI  -4
LITCHFIELD     PTCLDY    16   9  73 NW16G23   30.01R WCI   0
BUFFALO        MOCLDY     7   3  85 SW3       30.01R
MAPLE LAKE     PTCLDY    10   5  83 W6        30.02R WCI   0
HUTCHINSON     CLEAR      9   3  77 W12       30.02R WCI  -6
$$
MNZ037-044-045-052-053-021200-
   East Central Minnesota

CITY           SKY/WX    TMP DP  RH WIND       PRES   REMARKS
PRINCETON      CLOUDY    10   7  85 CALM      30.01R
MORA           CLOUDY    19  10  68 NW13      30.02R WCI   7
CAMBRIDGE      CLOUDY    12   1  62 SW3       30.01R
RUSH CITY      CLOUDY    18  12  77 W3        30.00R
MOOSE LAKE     LGT SNOW  14   9  79 NW10      29.99R WCI   1
HINCKLEY       CLOUDY    14  10  85 NW5       29.98R WCI   6
CLOQUET        LGT SNOW  10   3  72 NW15G28   29.93R WCI  -6
MCGREGOR       CLOUDY    12   5  73 NW15G24   30.00R WCI  -4
$$
MNZ071>073-080-081-089-090-097-098-021200-
   Southwest Minnesota

CITY           SKY/WX    TMP DP  RH WIND       PRES   REMARKS
MONTEVIDEO     PTCLDY    12   9  85 NW17      30.09R WCI  -5
GRANITE FALLS  CLEAR     15  10  81 NW22      30.10R WCI  -3
CANBY          MOCLDY    19  13  77 NW20G32   30.13R WCI   3
MARSHALL       CLEAR     23  16  74 NW26G32   30.06R WCI   6
REDWOOD FALLS  CLEAR     13   7  77 W13       30.04R WCI  -2
OLIVIA         CLEAR      7   3  85 NW6       30.04R WCI  -3
WINDOM         CLEAR     10   7  85 SW7       30.02R WCI   0
WORTHINGTON    CLEAR     13   9  84 W18       30.04R WCI  -4
JACKSON        CLEAR     14   9  79 SW8       30.03R WCI   3
TRACY          CLEAR    N/A N/A N/A W18       30.04R
SLAYTON        CLEAR     16  10  78 W17       30.04R WCI   0
$$
MNZ065>067-074>077-082>085-091>093-021200-
   South Central Minnesota

CITY           SKY/WX    TMP DP  RH WIND       PRES   REMARKS
MANKATO        CLEAR      7   3  84 S8        30.02S WCI  -6
NEW ULM        CLEAR      7   1  78 W7        30.03R WCI  -5
ST JAMES         N/A     12   7  79 SW10      30.01S WCI  -1
GLENCOE        PTCLDY     4  -1  79 SW5       30.02R WCI  -5
FARIBAULT      CLEAR      7   3  85 S7        30.01R WCI  -5
WASECA         CLEAR      5   1  85 SW6       30.04R WCI  -6
ALBERT LEA     CLEAR      9   7  92 SW6       30.02S WCI  -1
$$
MNZ078>079-086>088-094>096-021200-
   Southeast Minnesota

CITY           SKY/WX    TMP DP  RH WIND       PRES   REMARKS
ROCHESTER      CLEAR      8   4  83 SW14      29.98F WCI  -8
RED WING       CLEAR      3   0  85 CALM      30.02R
STANTON        CLEAR      8   2  76 SW6       30.01R WCI  -2
DODGE CENTER     N/A      7   3  85 SW13      29.98F WCI  -9
WINONA         CLEAR      9   3  78 CALM      30.04F
AUSTIN         CLEAR      9   3  78 SW6       30.02S WCI  -1
PRESTON        CLEAR     11   5  77 SW10      30.01S HAZE    WCI  -2
$$
ABBREVIATIONS USED IN REMARKS
   TC - TEMPERATURES IN CELSIUS
  WCI - WIND CHILL INDEX
   HX - HEAT INDEX
  VSB - VISIBILITY
$$



USA.gov is the U.S. government's official web portal to all federal, state and local government web resources and services.